Home > Weather > Wichita > Past weeks

Flag for USA Weather for the Past 2 Weeks in Wichita, Kansas, USA

Now
59 °F

Clear.


Feels Like: 59 °F
Forecast: 43 / 79 °F
Wind: 5 mph from Northwest

Location: Wichita Mid-Continent Airport

Current Time: May 4, 2016 at 10:17:01 PM

Latest Report: May 4, 2016 at 9:53 PM


Visibility: 10 mi

Pressure: 30.02 "Hg

Humidity: 44%

Dew Point: 37 °F

Location of WichitaLocation

Historic Weather in Wichita — Graph

°F

Wichita Temperature Yesterday

Maximum temperature yesterday: 72 °F (at 4:53 PM)
Minimum temperature yesterday: 42 °F (at 5:53 AM)
Average temperature yesterday: 58 °F

High & Low Weather Summary for the Past Weeks

 TemperatureHumidityPressure
High82 °F (Apr 26, 1:53 PM)93% (Apr 19, 8:53 PM)30.19 "Hg (Apr 19, 8:53 PM)
Low42 °F (May 3, 5:53 AM)21% (May 4, 3:53 PM)29.42 "Hg (Apr 26, 4:53 PM)
Average60 °F67%29.88 "Hg
* Reported Apr 19 8:01 PM — May 4 8:53 PM, Wichita, Weather by CustomWeather, © 2016

Note: Actual official high and low records may vary slightly from our data, if they occured in-between our weather recording intervals... More about our weather records

Advertising

Wichita Weather History for the Previous 24 Hours

Scroll right to see more
 ConditionsComfort  
Time TempWeatherWind HumidityBarometerVisibility
8:53 PM
Wed, May 4
65 °FSunny.7 mph33%30.01 "Hg10 mi
7:53 PM69 °FSunny.12 mph26%29.99 "Hg10 mi
6:53 PM72 °FSunny.14 mph23%30.00 "Hg10 mi
5:53 PM73 °FSunny.16 mph22%30.00 "Hg10 mi
4:53 PM75 °FSunny.21 mph21%30.01 "Hg10 mi
3:53 PM74 °FSunny.16 mph21%30.01 "Hg10 mi
2:53 PM75 °FSunny.16 mph22%30.02 "Hg10 mi
1:53 PM75 °FSunny.20 mph25%30.03 "Hg10 mi
12:53 PM73 °FSunny.18 mph27%30.04 "Hg10 mi
11:53 AM71 °FSunny.17 mph29%30.04 "Hg10 mi
10:53 AM68 °FSunny.15 mph40%30.04 "Hg10 mi
9:53 AM65 °FSunny.13 mph47%30.03 "Hg10 mi
8:53 AM61 °FSunny.14 mph58%30.01 "Hg10 mi
7:53 AM58 °FSunny.17 mph62%30.00 "Hg10 mi
6:53 AM56 °FClear.14 mph67%29.96 "Hg10 mi
5:53 AM54 °FClear.10 mph72%29.96 "Hg10 mi
4:53 AM54 °FClear.10 mph72%29.97 "Hg10 mi
3:53 AM51 °FClear.7 mph74%29.97 "Hg10 mi
2:53 AM50 °FClear.7 mph77%29.98 "Hg10 mi
1:53 AM54 °FClear.9 mph69%29.98 "Hg10 mi
12:53 AM56 °FClear.7 mph67%29.99 "Hg10 mi
11:53 PM
Tue, May 3
56 °FPassing clouds.8 mph67%29.99 "Hg10 mi
10:53 PM58 °FPassing clouds.8 mph62%29.99 "Hg10 mi
Weather by CustomWeather, © 2016

See weather overviewHow to use our weather pages